Location: Orange Harbor Mobile Home Park
(26.6923°N, 81.7937°W)
Time: 00:01:45
(UTC+00:00)

Daily predictions for brighter satellites

Satellite Brightness Start Highest point End
(mag) Time Altitude Azimuth Time Altitude Azimuth Time Altitude Azimuth
Cosmos 1076 Rocket 3.6 00:03:27 10° N 00:07:41 50° E 00:11:50 10° SSE
Cosmos 2058 3.9 00:03:53 10° NNE 00:06:30 28° NE 00:06:30 28° NE
Cosmos 1939 Rocket 3.8 00:11:41 30° NE 00:11:41 30° NE 00:14:14 10° N
Cosmos 1833 Rocket 2.6 00:05:01 10° NNW 00:10:38 78° ENE 00:16:15 10° SSE
Lacrosse 5 2.8 00:09:37 10° NNW 00:13:54 28° NE 00:13:54 28° NE
EO 1 Delta rocket 3.9 00:10:11 10° S 00:14:48 77° W 00:19:32 10° NNW
Shenzhou-11 Module 4.4 00:13:52 10° NNW 00:14:21 13° N 00:14:21 13° N
Cosmos 2208 Rocket 3.9 00:14:19 10° S 00:19:26 60° ESE 00:22:31 24° NNE
Cosmos 1763 Rocket 3.4 00:14:09 10° SSW 00:19:27 84° ESE 00:24:46 10° NNE
Meteosat 1 Rocket2 2.5 00:17:03 10° W 00:20:52 70° N 00:21:06 66° NE
Cosmos 2369 Rocket 2.6 00:18:06 10° S 00:23:06 39° ESE 00:23:06 39° ESE
YAOGAN 1 3.0 00:21:11 10° S 00:25:26 61° W 00:29:43 10° NNW
Cosmos 192 4.2 00:20:45 10° S 00:25:35 70° ESE 00:27:43 33° NNE
Cosmos 1459 Rocket 4.0 00:20:54 10° N 00:27:04 57° E 00:33:16 10° SSE
ADEOS Rocket 3.7 00:22:37 10° NNE 00:29:31 38° ESE 00:35:22 10° SSE
OAO 3 Rocket 3.1 00:27:07 10° WNW 00:32:03 82° NNE 00:32:40 68° E
Delta 2 Rocket 3.7 00:28:18 10° W 00:34:19 88° S 00:35:49 54° E
Cosmos 2061 Rocket 4.3 00:30:17 10° N 00:35:05 42° NE 00:35:05 42° NE
IRS-1A Rocket 4.3 00:38:36 55° NE 00:38:36 55° NE 00:43:30 10° N
Delta 128 4.4 00:32:52 10° W 00:38:57 80° N 00:40:38 54° ENE
Cosmos 1943 Rocket 2.0 00:36:28 10° S 00:41:58 73° ESE 00:42:30 67° ENE
CZ-4 R/B 3.8 00:40:38 10° SSW 00:43:59 24° W 00:47:23 10° NW
Cosmos 2082 Rocket 2.2 00:38:39 10° NNW 00:44:20 78° WSW 00:47:50 24° S
Cosmos 1814 Rocket 3.8 00:39:49 10° S 00:44:49 77° SE 00:44:49 77° SE
ATLAS 5 CENTAUR R/B 4.0 00:40:29 10° SW 00:47:16 41° SE 00:52:22 35° ESE
Cosmos-2242 3.9 00:45:23 10° SSW 00:49:35 47° W 00:53:23 12° N
ATLAS 3B R/B 4.0 00:45:59 10° WSW 00:52:05 35° WNW 00:58:07 10° N
OAO 2 Rocket 4.3 00:49:27 10° W 00:54:23 41° SSW 00:55:02 39° SSW
Cosmos 2173 Rocket 4.0 00:50:42 10° N 00:56:52 76° W 01:02:57 10° S
CENTAUR R/B 4.3 00:54:13 10° WSW 00:58:54 25° NW 01:04:08 10° N
Cosmos 2123 Rocket 3.9 00:52:50 10° S 00:59:10 84° W 01:05:28 10° N
Cosmos 44 Rocket 3.9 00:54:58 10° SW 00:59:54 54° WNW 01:00:10 53° NW
In-Cosmos 22 Rocket 4.5 01:01:04 10° NNW 01:06:31 65° W 01:07:14 59° SW
Cosmos 1802 Rocket 4.1 01:02:56 10° N 01:09:18 75° W 01:11:38 41° SSW
Ariane Rocket 4.1 01:19:59 41° W 01:19:59 41° W 01:24:26 10° NNW
H-2A R/B 4.1 00:12:06 10° WSW 01:27:09 76° NNW 01:29:54 59° NE
Cosmos 2344 3.5 01:20:04 10° SSW 01:27:52 79° W 01:27:52 79° W
Cosmos 2278 Rocket 4.2 08:34:05 23° E 08:34:05 23° E 08:37:01 10° SE
Milstar 3 Cent rocket 3.7 08:38:03 37° E 08:38:03 37° E 08:41:05 10° E
USA 238 DEB 4.2 09:12:25 50° S 09:12:25 50° S 09:17:55 10° SSE
USA 238 4.2 09:12:26 52° S 09:12:26 52° S 09:18:00 10° SSE
Delta 7925 Rocket 4.0 09:13:10 86° ESE 09:13:10 86° ESE 09:19:12 10° E
Orbus 7S 4.4 09:21:48 60° SE 09:21:48 60° SE 09:29:47 10° ESE
Cosmos 2327 Rocket 4.3 09:26:59 44° SSW 09:29:08 82° W 09:35:18 10° N
Cosmos 1953 3.4 09:31:41 41° ESE 09:31:41 41° ESE 09:34:45 10° SSE
Meteor 1-31 Rocket 4.3 09:28:15 10° NNE 09:31:44 35° E 09:35:12 10° SSE
NOSS 3-2 (A) 4.1 09:31:40 53° W 09:32:55 58° WSW 09:41:18 10° S
Cosmos 2154 Rocket 3.8 09:29:42 10° S 09:35:54 89° W 09:42:07 10° N
Milstar 3 2.8 09:37:10 49° WSW 09:39:20 81° SSE 09:46:01 10° E
Cosmos 1610 Rocket 4.3 09:33:26 10° S 09:39:40 75° W 09:46:01 10° N
BREEZE-M DEB (TANK) 3.6 09:49:05 55° S 09:49:37 65° SE 09:56:22 10° NE
BREEZE-M DEB (TANK) 3.9 09:30:04 10° SW 09:49:38 74° NW 09:53:44 10° NE
Cosmos 1892 Rocket 3.4 09:49:32 51° SSW 09:50:36 80° W 09:55:01 10° N
GPS 2-04 Rocket1 3.7 09:51:28 36° S 09:52:25 43° SSE 09:56:25 10° ENE
CZ-4B R/B 2.9 09:48:40 10° NNE 09:52:26 68° ESE 09:56:02 10° S
Delta 198 4.2 09:51:15 51° WSW 09:52:41 74° S 09:59:02 10° E
Cosmos 1850 Rocket 3.8 09:50:11 10° SSW 09:55:22 84° WNW 10:00:33 10° NNE
SL-16 R/B 3.0 09:59:10 32° NW 09:59:10 32° NW 10:03:15 10° N
Cosmos 1603 4.4 09:52:49 10° S 09:58:14 53° ESE 10:03:41 10° NNE
DELTA 2 R/B (1) 3.4 09:56:41 45° WSW 09:58:26 82° NNW 10:04:00 10° ENE
NOSS 3-2 (C) 4.2 09:54:29 23° NW 09:59:50 58° WSW 10:08:13 10° S
Nadezhda 3 Rocket 4.0 09:55:56 10° N 10:02:18 89° ENE 10:08:34 10° S
Meteor PRIRODA 4.1 10:01:02 10° NNE 10:04:43 62° E 10:08:22 10° S
Cosmos 2341 Rocket 3.9 10:01:33 10° S 10:07:48 86° W 10:14:03 10° N
Meteor 1-24 Rocket 4.4 10:03:52 10° S 10:09:25 59° E 10:15:12 10° NNE
Cosmos 1606 Rocket 3.4 10:05:48 10° NNW 10:10:04 61° W 10:14:20 10° S
Cosmos 1295 Rocket 4.4 10:04:21 10° SSW 10:10:28 61° W 10:16:31 10° N
Cosmos 1356 3.3 10:07:22 11° N 10:10:40 85° E 10:14:06 10° S
ISS -2.5 10:09:08 17° SSW 10:11:24 40° SE 10:14:35 10° ENE
KORONAS-FOTON 3.8 10:07:46 10° S 10:11:31 80° E 10:15:17 10° N
Meteor 2-10 4.3 10:08:29 10° N 10:13:49 73° E 10:19:21 10° SSE
Meteor 1-16 Rocket 4.0 10:10:14 10° N 10:15:36 83° W 10:21:07 10° S
Cosmos 2278 Rocket 3.0 10:16:04 27° W 10:16:07 27° WSW 10:20:48 10° SSW
GP-B 3.0 10:13:06 10° S 10:17:32 90° E 10:21:58 10° N
CZ-2C R/B 2.8 10:13:22 10° N 10:18:13 43° WNW 10:22:56 10° SW
SL-8 Rocket 4.0 10:15:36 10° S 10:21:48 86° E 10:27:59 10° N
Cosmos 2297 3.8 10:16:30 10° NNW 10:22:15 82° ENE 10:27:57 10° SSE
ATLAS 3B R/B 2.7 10:15:39 10° NW 10:22:17 59° WSW 10:29:09 10° SSE
Cosmos 1626 Rocket 3.7 10:19:25 10° S 10:23:41 74° E 10:28:00 10° N
Cosmos 1437 Rocket 3.4 10:26:08 29° WNW 10:26:08 29° WNW 10:29:25 10° NNW
Helios 1A Rocket 4.2 10:22:12 10° NNE 10:26:11 44° E 10:30:07 10° S
Cosmos 1726 1.9 10:22:31 10° N 10:26:11 83° W 10:29:52 10° S
Cosmos 1943 3.4 10:23:15 10° S 10:28:54 74° ESE 10:34:34 10° NNE
CENTAUR R/B 3.4 10:21:42 10° NW 10:29:52 51° WSW 10:38:09 10° S
Cosmos 2366 rocket 4.2 10:26:24 10° S 10:32:43 82° E 10:39:05 10° N
Cosmos 2228 3.5 10:28:56 10° NNW 10:32:47 35° W 10:36:39 10° SSW
COSMO-SKYMED 1 3.8 10:30:53 10° SSE 10:35:00 45° ENE 10:39:09 10° N
GPS 2-15 Rocket1 4.4 10:35:36 11° SW 10:39:31 31° S 10:43:40 10° ESE
Cosmos 1908 3.1 10:39:18 10° N 10:43:06 81° W 10:46:54 10° S
ALOS 2.4 10:45:15 10° NNE 10:49:55 82° E 10:54:34 10° S
Cosmos 1674 3.8 10:47:17 10° SW 10:50:09 21° W 10:53:02 10° NNW
SJ-12 3.9 10:46:09 10° N 10:50:13 64° WNW 10:54:18 10° SSW
PSLV R/B 4.4 10:47:54 10° NNW 10:51:10 30° WNW 10:54:26 10° SW
Cosmos 1763 Rocket 4.2 10:48:47 10° N 10:53:48 57° ENE 10:58:46 10° SSE
Cosmos 1602 Rocket 3.7 10:55:04 10° SSW 10:59:14 47° W 11:03:24 10° N
Cosmos 1758 Rocket 4.3 10:56:40 10° S 11:00:53 57° E 11:05:08 10° NNE
Cosmos 1626 2.0 10:59:28 10° SSW 11:03:08 69° W 11:06:49 10° N
Iridium 51 4.2 11:01:10 10° NNW 11:04:32 46° W 11:07:50 10° SSW
Delta 7925 Rocket 3.9 11:01:48 10° W 11:08:30 68° SSW 11:13:46 10° ESE
ASTEX 1 3.7 11:03:46 10° SSE 11:08:36 73° E 11:13:28 10° N
Cosmos 2369 Rocket 3.2 11:03:23 10° N 11:08:48 50° ENE 11:14:11 10° SE
Milstar 3 Cent rocket 2.0 11:07:50 10° W 11:13:31 74° N 11:18:07 10° E
